CW4658 Weather Reports


time (UTC)temp
C
wind
direction
speed
KPH
gust
KPH
rain 1hr
cm
rain 24hr
cm
rain mn
cm
humidity
%
barometer
mb
20260507070404 8 0 0.0 0.0 0.00 0.00 0.00 89 1016.7
20260507065604 8 0 0.0 0.0 0.00 0.00 0.00 89 1016.8
20260507065205 8 0 0.0 0.0 0.00 0.00 0.00 89 1016.8
20260507064405 8 0 0.0 0.0 0.00 0.00 0.00 89 1016.6
20260507064005 8 0 0.0 0.0 0.00 0.00 0.00 88 1016.5
20260507063204 8 0 0.0 0.0 0.00 0.00 0.00 89 1016.5
20260507062805 8 0 0.0 0.0 0.00 0.00 0.00 89 1016.4
20260507062405 8 0 0.0 0.0 0.00 0.00 0.00 89 1016.4
20260507062006 8 0 0.0 0.0 0.00 0.00 0.00 88 1016.4
20260507061605 8 0 0.0 0.0 0.00 0.00 0.00 89 1016.3
20260507061206 8 0 0.0 0.0 0.00 0.00 0.00 88 1016.4
20260507060805 8 0 0.0 0.0 0.00 0.00 0.00 88 1016.3
20260507060405 8 0 0.0 0.0 0.00 0.00 0.00 88 1016.4
20260507060006 8 0 0.0 0.0 0.00 0.00 0.00 88 1016.4
20260507055605 8 0 0.0 0.0 0.00 0.00 0.00 88 1016.4
20260507055205 9 0 0.0 0.0 0.00 0.00 0.00 88 1016.4
20260507054804 9 0 0.0 0.0 0.00 0.00 0.00 88 1016.5
20260507054405 9 0 0.0 0.0 0.00 0.00 0.00 88 1016.5
20260507054006 9 0 0.0 0.0 0.00 0.00 0.00 88 1016.5
20260507053605 9 0 0.0 0.0 0.00 0.00 0.00 88 1016.3
20260507053205 9 0 0.0 0.0 0.00 0.00 0.00 88 1016.2
20260507052405 9 0 0.0 0.0 0.00 0.00 0.00 87 1016.1
20260507052006 9 0 0.0 0.0 0.00 0.00 0.00 87 1016.2
20260507051604 9 0 0.0 0.0 0.00 0.00 0.00 87 1016.2
20260507051206 10 0 0.0 0.0 0.00 0.00 0.00 87 1016.2
20260507050805 10 0 0.0 0.0 0.00 0.00 0.00 87 1016.1
20260507050405 10 0 0.0 0.0 0.00 0.00 0.00 87 1016.1
20260507050013 10 0 0.0 0.0 0.00 0.00 0.00 86 1016.1
20260507045605 10 0 0.0 0.0 0.00 0.00 0.00 86 1016.1
20260507045205 10 0 0.0 0.0 0.00 0.00 0.00 86 1016.0
20260507044805 10 0 0.0 0.0 0.00 0.00 0.00 86 1016.1
20260507044405 10 0 0.0 0.0 0.00 0.00 0.00 86 1016.0
20260507044005 10 0 0.0 0.0 0.00 0.00 0.00 86 1016.1
20260507043605 10 0 0.0 0.0 0.00 0.00 0.00 86 1016.0
20260507043205 10 0 0.0 0.0 0.00 0.00 0.00 86 1016.1
20260507042805 10 0 0.0 0.0 0.00 0.00 0.00 86 1016.0
20260507042404 10 0 0.0 0.0 0.00 0.00 0.00 85 1016.0
20260507042006 10 0 0.0 0.0 0.00 0.00 0.00 85 1015.9
20260507041604 10 0 0.0 0.0 0.00 0.00 0.00 86 1015.8
20260507040805 10 0 0.0 0.0 0.00 0.00 0.00 86 1016.0
20260507040405 10 0 0.0 0.0 0.00 0.00 0.00 85 1016.0
20260507040006 10 0 0.0 0.0 0.00 0.00 0.00 85 1016.0
20260507035605 10 0 0.0 0.0 0.00 0.00 0.00 85 1016.0
20260507034805 11 0 0.0 0.0 0.00 0.00 0.00 85 1015.9
20260507034406 11 0 0.0 0.0 0.00 0.00 0.00 84 1015.7
20260507033604 11 0 0.0 0.0 0.00 0.00 0.00 84 1015.7
20260507033205 11 0 0.0 0.0 0.00 0.00 0.00 83 1015.7
20260507032805 11 0 0.0 0.0 0.00 0.00 0.00 84 1015.7
20260507032406 11 0 0.0 0.0 0.00 0.00 0.00 84 1015.7
20260507032006 11 0 0.0 0.0 0.00 0.00 0.00 83 1015.7
20260507031605 11 0 0.0 0.0 0.00 0.00 0.00 83 1015.6
20260507031205 11 0 0.0 0.0 0.00 0.00 0.00 83 1015.6
20260507030805 11 0 0.0 0.0 0.00 0.00 0.00 83 1015.5
20260507030406 11 0 0.0 0.0 0.00 0.00 0.00 82 1015.5
20260507030006 11 0 0.0 0.0 0.00 0.00 0.00 82 1015.5
20260507025605 11 0 0.0 0.0 0.00 0.00 0.00 82 1015.5
20260507025206 11 0 0.0 0.0 0.00 0.00 0.00 82 1015.4
20260507024805 11 0 0.0 0.0 0.00 0.00 0.00 81 1015.3
20260507024405 11 0 0.0 0.0 0.00 0.00 0.00 81 1015.3
20260507024006 12 0 0.0 0.0 0.00 0.00 0.00 81 1015.3
20260507023605 12 0 0.0 0.0 0.00 0.00 0.00 80 1015.2
20260507023205 12 0 0.0 0.0 0.00 0.00 0.00 80 1015.1
20260507022805 12 0 0.0 0.0 0.00 0.00 0.00 79 1015.1
20260507022405 12 0 0.0 0.0 0.00 0.00 0.00 79 1015.1
20260507022006 12 0 0.0 0.0 0.00 0.00 0.00 79 1014.9
20260507021205 12 0 0.0 0.0 0.00 0.00 0.00 79 1014.9
20260507020405 12 0 0.0 0.0 0.00 0.00 0.00 76 1014.8
20260507020007 13 0 0.0 0.0 0.00 0.00 0.00 76 1014.6
20260507015205 13 0 0.0 0.0 0.00 0.00 0.00 75 1014.5
20260507014805 13 0 0.0 0.0 0.00 0.00 0.00 73 1014.5
20260507014405 13 0 0.0 0.0 0.00 0.00 0.00 73 1014.5
20260507014006 13 0 0.0 0.0 0.00 0.00 0.00 71 1014.5
20260507013205 14 0 0.0 0.0 0.00 0.00 0.00 71 1014.4
20260507012805 14 0 0.0 0.0 0.00 0.00 0.00 71 1014.4
20260507012405 14 0 0.0 0.0 0.00 0.00 0.00 72 1014.4
20260507012006 15 0 0.0 0.0 0.00 0.00 0.00 72 1014.3
20260507011605 15 0 0.0 0.0 0.00 0.00 0.00 70 1014.3
20260507011205 15 0 0.0 0.0 0.00 0.00 0.00 70 1014.2
20260507010007 15 0 0.0 0.0 0.00 0.00 0.00 69 1014.0
20260507004806 16 0 0.0 0.0 0.00 0.00 0.00 64 1014.0
20260507004405 16 0 0.0 0.0 0.00 0.00 0.00 63 1014.0
20260507004007 16 0 0.0 0.0 0.00 0.00 0.00 59 1014.0
20260507003205 17 85 0.0 1.6 0.00 0.00 0.00 57 1013.9
20260507002806 17 81 0.0 1.6 0.00 0.00 0.00 57 1013.9
20260507002406 17 49 0.0 3.2 0.00 0.00 0.00 56 1013.9
20260507002006 17 22 1.6 8.0 0.00 0.00 0.00 55 1013.8
20260507001606 17 23 1.6 8.0 0.00 0.00 0.00 55 1013.8
20260507000806 17 10 1.6 8.0 0.00 0.00 0.00 56 1013.7
20260507000406 17 6 1.6 8.0 0.00 0.00 0.00 56 1013.8
20260507000007 17 42 1.6 6.4 0.00 0.00 0.00 60 1013.8
20260506235205 17 44 1.6 9.7 0.00 0.00 0.00 55 1013.8
20260506234805 17 48 1.6 6.4 0.00 0.00 0.00 56 1013.7
20260506234406 17 39 1.6 4.8 0.00 0.00 0.00 57 1013.7
20260506233605 17 30 1.6 8.0 0.00 0.00 0.00 57 1013.8
20260506233206 17 33 1.6 8.0 0.00 0.00 0.00 56 1013.8
20260506232805 17 27 1.6 8.0 0.00 0.00 0.00 57 1013.7
20260506232406 17 21 1.6 9.7 0.00 0.00 0.00 56 1013.7
20260506232006 17 26 1.6 9.7 0.00 0.00 0.00 57 1013.7
20260506231606 17 21 1.6 9.7 0.00 0.00 0.00 56 1013.8
20260506231206 17 14 1.6 8.0 0.00 0.00 0.00 57 1013.6
20260506230806 17 38 1.6 8.0 0.00 0.00 0.00 56 1013.6
20260506230405 17 62 1.6 8.0 0.00 0.00 0.00 57 1013.6
20260506230006 17 28 1.6 6.4 0.00 0.00 0.00 57 1013.5
20260506225606 17 15 3.2 9.7 0.00 0.00 0.00 57 1013.5
20260506225206 17 18 3.2 9.7 0.00 0.00 0.00 57 1013.6
20260506224805 17 33 3.2 9.7 0.00 0.00 0.00 56 1013.7
20260506224406 17 36 3.2 11.3 0.00 0.00 0.00 56 1013.6
20260506224006 17 35 3.2 11.3 0.00 0.00 0.00 57 1013.6
20260506223606 17 37 4.8 16.1 0.00 0.00 0.00 57 1013.5
20260506223205 17 31 4.8 16.1 0.00 0.00 0.00 56 1013.4
20260506222405 17 40 3.2 11.3 0.00 0.00 0.00 56 1013.2
20260506222007 17 37 3.2 11.3 0.00 0.00 0.00 56 1013.1
20260506221606 17 47 3.2 9.7 0.00 0.00 0.00 56 1012.9
20260506221205 17 26 3.2 11.3 0.00 0.00 0.00 56 1012.9
20260506220806 17 28 4.8 11.3 0.00 0.00 0.00 55 1012.9
20260506220406 17 30 4.8 16.1 0.00 0.00 0.00 54 1012.7
20260506220007 17 30 4.8 16.1 0.00 0.00 0.00 54 1012.7
20260506215605 18 28 3.2 16.1 0.00 0.00 0.00 54 1012.9
20260506215205 18 36 4.8 11.3 0.00 0.00 0.00 53 1012.8
20260506214805 18 34 4.8 14.5 0.00 0.00 0.00 53 1012.7
20260506214406 18 44 6.4 14.5 0.00 0.00 0.00 54 1012.6
20260506214007 18 48 4.8 14.5 0.00 0.00 0.00 54 1012.6
20260506213605 18 49 3.2 12.9 0.00 0.00 0.00 54 1012.5
20260506213206 18 38 3.2 9.7 0.00 0.00 0.00 54 1012.5
20260506212806 18 53 4.8 12.9 0.00 0.00 0.00 55 1012.5
20260506212007 18 21 3.2 12.9 0.00 0.00 0.00 54 1012.6
20260506211605 18 3 3.2 8.0 0.00 0.00 0.00 54 1012.5
20260506211205 18 9 3.2 8.0 0.00 0.00 0.00 54 1012.4
20260506210806 18 16 3.2 11.3 0.00 0.00 0.00 55 1012.5
20260506210406 18 19 3.2 11.3 0.00 0.00 0.00 54 1012.6
20260506210007 18 23 4.8 16.1 0.00 0.00 0.00 56 1012.7
20260506205206 18 28 4.8 16.1 0.00 0.00 0.00 56 1012.8
20260506204806 18 35 4.8 17.7 0.00 0.00 0.00 57 1012.8
20260506204405 17 37 4.8 17.7 0.00 0.00 0.00 58 1012.8
20260506204007 17 24 3.2 17.7 0.00 0.00 0.00 59 1012.8
20260506203606 17 27 3.2 9.7 0.00 0.00 0.00 58 1013.0
20260506203205 17 36 3.2 8.0 0.00 0.00 0.00 58 1013.1
20260506202806 17 56 3.2 9.7 0.00 0.00 0.00 57 1013.3
20260506202405 18 51 3.2 9.7 0.00 0.00 0.00 57 1013.5
20260506202007 18 35 3.2 11.3 0.00 0.00 0.00 56 1013.5
20260506201606 18 39 3.2 11.3 0.00 0.00 0.00 56 1013.5
20260506201205 18 43 3.2 11.3 0.00 0.00 0.00 56 1013.5
20260506200806 18 55 3.2 9.7 0.00 0.00 0.00 56 1013.5
20260506200406 18 49 1.6 9.7 0.00 0.00 0.00 60 1013.4
20260506195606 17 25 1.6 9.7 0.00 0.00 0.00 60 1013.6
20260506195206 17 12 3.2 9.7 0.00 0.00 0.00 60 1013.7
20260506194806 17 17 3.2 9.7 0.00 0.00 0.00 58 1013.9
20260506194405 17 34 3.2 9.7 0.00 0.00 0.00 60 1013.9
20260506194007 17 47 3.2 11.3 0.00 0.00 0.00 59 1013.8
20260506193606 17 41 3.2 14.5 0.00 0.00 0.00 59 1014.0
20260506193206 16 52 3.2 14.5 0.00 0.00 0.00 59 1013.8
20260506192806 16 61 1.6 9.7 0.00 0.00 0.00 59 1013.8
20260506192406 16 71 3.2 9.7 0.00 0.00 0.00 59 1014.0
20260506192007 16 68 3.2 8.0 0.00 0.00 0.00 59 1014.3
20260506191206 16 29 3.2 9.7 0.00 0.00 0.00 60 1014.3
20260506190406 16 13 3.2 9.7 0.00 0.00 0.00 62 1014.3
20260506190007 15 18 3.2 11.3 0.00 0.00 0.00 62 1014.4
20260506184405 15 29 1.6 8.0 0.00 0.00 0.00 63 1014.7
20260506184007 15 24 3.2 9.7 0.00 0.00 0.00 63 1014.7
20260506183606 15 22 3.2 11.3 0.00 0.00 0.00 63 1014.9
20260506183206 15 13 3.2 11.3 0.00 0.00 0.00 62 1015.0
20260506182007 15 12 4.8 14.5 0.00 0.00 0.00 63 1014.6
20260506181605 14 24 6.4 14.5 0.00 0.00 0.00 63 1014.8
20260506181206 14 31 4.8 16.1 0.00 0.00 0.00 63 1014.9
20260506180805 15 33 4.8 16.1 0.00 0.00 0.00 62 1015.1
20260506180407 15 29 4.8 14.5 0.00 0.00 0.00 64 1015.0
20260506180007 14 24 6.4 12.9 0.00 0.00 0.00 64 1014.9
20260506175606 14 15 4.8 12.9 0.00 0.00 0.00 64 1015.2
20260506175206 14 18 3.2 12.9 0.00 0.00 0.00 65 1015.4
20260506174806 13 22 1.6 11.3 0.00 0.00 0.00 66 1015.4
20260506174406 13 43 3.2 11.3 0.00 0.00 0.00 65 1015.5
20260506174006 13 48 3.2 11.3 0.00 0.00 0.00 65 1015.6
20260506173606 13 51 4.8 11.3 0.00 0.00 0.00 65 1015.6
20260506173206 14 44 4.8 11.3 0.00 0.00 0.00 66 1015.6
20260506172007 13 22 4.8 12.9 0.00 0.00 0.00 67 1015.7
20260506171607 13 30 4.8 12.9 0.00 0.00 0.00 68 1015.7
20260506171206 13 31 4.8 12.9 0.00 0.00 0.00 67 1015.9
20260506170806 13 32 3.2 9.7 0.00 0.00 0.00 68 1016.2
20260506170406 13 15 3.2 11.3 0.00 0.00 0.00 68 1016.4
20260506170007 13 20 1.6 11.3 0.00 0.00 0.00 68 1016.4
20260506165607 13 26 1.6 9.7 0.00 0.00 0.00 70 1016.6
20260506165206 13 27 1.6 12.9 0.00 0.00 0.00 69 1016.8
20260506164806 13 26 3.2 12.9 0.00 0.00 0.00 69 1016.7
20260506164406 13 31 3.2 11.3 0.00 0.00 0.00 68 1016.6
20260506164007 13 27 1.6 11.3 0.00 0.00 0.00 68 1016.4
20260506163606 13 13 1.6 9.7 0.00 0.00 0.00 69 1016.6
20260506162806 13 18 4.8 12.9 0.00 0.00 0.00 68 1016.0
20260506162406 13 16 4.8 12.9 0.00 0.00 0.00 68 1015.9
20260506162007 13 28 4.8 11.3 0.00 0.00 0.00 69 1015.7
20260506161605 13 34 3.2 9.7 0.00 0.00 0.00 69 1015.7
20260506161206 13 47 3.2 11.3 0.00 0.00 0.00 70 1015.5
20260506160806 13 41 3.2 11.3 0.00 0.00 0.00 69 1015.6
20260506160007 13 36 1.6 8.0 0.00 0.00 0.00 69 1015.5
20260506155606 13 31 3.2 14.5 0.00 0.00 0.00 70 1015.3
20260506155206 13 30 3.2 14.5 0.00 0.00 0.00 69 1015.4
20260506154806 12 24 4.8 14.5 0.00 0.00 0.00 68 1015.0
20260506154406 12 25 4.8 14.5 0.00 0.00 0.00 68 1015.2
20260506154007 12 26 4.8 14.5 0.00 0.00 0.00 69 1015.0
20260506153206 12 12 4.8 14.5 0.00 0.00 0.00 68 1014.8
20260506152406 12 33 3.2 14.5 0.00 0.00 0.00 68 1014.7
20260506152007 13 31 4.8 19.3 0.00 0.00 0.00 69 1014.8
20260506151607 12 30 4.8 19.3 0.00 0.00 0.00 69 1014.8
20260506151207 12 33 4.8 19.3 0.00 0.00 0.00 69 1014.6
20260506150806 12 48 3.2 12.9 0.00 0.00 0.00 69 1014.6
20260506150406 12 31 3.2 12.9 0.00 0.00 0.00 71 1014.5
20260506150008 12 23 4.8 12.9 0.00 0.00 0.00 70 1014.2
20260506145607 12 17 3.2 11.3 0.00 0.00 0.00 71 1014.4
20260506145205 12 18 4.8 12.9 0.00 0.00 0.00 71 1014.6
20260506144804 12 22 3.2 12.9 0.00 0.00 0.00 71 1014.4
20260506144404 12 34 3.2 11.3 0.00 0.00 0.00 72 1014.5
20260506143604 12 30 4.8 11.3 0.00 0.00 0.00 72 1014.7
20260506142805 11 27 6.4 17.7 0.00 0.00 0.00 72 1014.7
20260506142404 11 29 4.8 17.7 0.00 0.00 0.00 72 1014.6
20260506142005 11 15 4.8 14.5 0.00 0.00 0.00 73 1014.6
20260506141604 11 26 4.8 19.3 0.00 0.00 0.00 73 1014.3
20260506140804 11 44 6.4 19.3 0.00 0.00 0.00 73 1014.4
20260506140404 11 18 4.8 16.1 0.00 0.00 0.00 74 1014.5
20260506140006 11 22 6.4 16.1 0.00 0.00 0.00 74 1014.5
20260506135604 11 31 6.4 16.1 0.00 0.00 0.00 74 1014.4
20260506135205 11 35 6.4 14.5 0.00 0.00 0.00 74 1014.3
20260506134005 11 39 6.4 17.7 0.00 0.00 0.00 74 1013.7
20260506133604 11 32 6.4 19.3 0.00 0.00 0.00 74 1013.7
20260506133204 11 27 6.4 19.3 0.00 0.00 0.00 73 1013.9
20260506132404 11 25 4.8 16.1 0.00 0.00 0.00 74 1014.1
20260506132005 11 24 4.8 16.1 0.00 0.00 0.00 74 1014.4
20260506131604 11 28 4.8 16.1 0.00 0.00 0.00 73 1014.2
20260506131205 11 27 4.8 16.1 0.00 0.00 0.00 74 1014.4
20260506130805 11 19 4.8 16.1 0.00 0.00 0.00 73 1014.4
20260506130404 11 33 4.8 19.3 0.00 0.00 0.00 73 1014.3
20260506130006 11 35 6.4 19.3 0.00 0.00 0.00 72 1014.3
20260506125204 11 33 4.8 16.1 0.00 0.00 0.00 72 1014.2
20260506124805 11 35 6.4 24.1 0.00 0.00 0.00 72 1013.9
20260506123604 11 24 6.4 19.3 0.00 0.00 0.00 72 1013.9
20260506123204 11 19 4.8 19.3 0.00 0.00 0.00 71 1014.0
20260506122404 11 32 4.8 19.3 0.00 0.00 0.00 72 1014.2
20260506122006 11 24 4.8 19.3 0.00 0.00 0.00 71 1013.9
20260506121604 11 15 4.8 16.1 0.00 0.00 0.00 71 1013.8
20260506120804 11 15 6.4 16.1 0.00 0.00 0.00 72 1013.6
20260506120006 11 19 4.8 16.1 0.00 0.00 0.00 72 1013.5
20260506115604 11 34 4.8 12.9 0.00 0.00 0.00 73 1013.6
20260506115205 11 27 4.8 12.9 0.00 0.00 0.00 73 1013.6
20260506114805 11 21 4.8 12.9 0.00 0.00 0.00 73 1013.2
20260506114405 11 24 4.8 12.9 0.00 0.00 0.00 73 1013.1
20260506114005 11 26 4.8 12.9 0.00 0.00 0.00 73 1013.0
20260506113605 11 25 4.8 12.9 0.00 0.00 0.00 72 1012.9
20260506113205 11 32 4.8 11.3 0.00 0.00 0.00 72 1012.9
20260506112404 11 32 3.2 12.9 0.00 0.00 0.00 72 1012.8
20260506111605 11 24 4.8 14.5 0.00 0.00 0.00 71 1012.8
20260506110805 11 23 4.8 12.9 0.00 0.00 0.00 71 1012.4
20260506110404 11 19 4.8 14.5 0.00 0.00 0.00 71 1012.4
20260506105605 11 26 6.4 16.1 0.00 0.00 0.00 72 1012.3
20260506104804 11 29 6.4 16.1 0.00 0.00 0.00 73 1012.3
20260506104405 11 25 6.4 16.1 0.00 0.00 0.00 73 1012.2
20260506104006 11 22 8.0 24.1 0.00 0.00 0.00 73 1012.3
20260506103605 11 26 6.4 24.1 0.00 0.00 0.00 73 1012.3
20260506103205 11 28 4.8 17.7 0.00 0.00 0.00 73 1012.3
20260506102805 11 31 4.8 17.7 0.00 0.00 0.00 73 1012.4
20260506102005 11 33 3.2 14.5 0.00 0.00 0.00 73 1012.3
20260506101605 11 31 3.2 8.0 0.00 0.00 0.00 73 1012.3
20260506101204 11 34 3.2 8.0 0.00 0.00 0.00 73 1012.2
20260506100805 11 39 3.2 12.9 0.00 0.00 0.00 73 1012.0
20260506100405 11 55 3.2 14.5 0.00 0.00 0.00 74 1011.8
20260506100005 11 40 4.8 19.3 0.00 0.00 0.00 73 1011.7
20260506095605 11 28 4.8 19.3 0.00 0.00 0.00 74 1011.7
20260506095205 11 28 4.8 19.3 0.00 0.00 0.00 74 1011.6
20260506094804 11 20 4.8 14.5 0.00 0.00 0.00 74 1011.5
20260506094405 11 20 4.8 14.5 0.00 0.00 0.00 74 1011.4
20260506093605 11 31 4.8 17.7 0.00 0.00 0.00 75 1011.1
20260506093205 11 37 3.2 17.7 0.00 0.00 0.00 76 1011.2
20260506092804 11 25 3.2 8.0 0.00 0.00 0.00 76 1010.8
20260506092404 11 25 4.8 12.9 0.00 0.00 0.00 76 1010.6
20260506092006 11 17 4.8 12.9 0.00 0.00 0.00 76 1010.5
20260506091606 11 23 4.8 12.9 0.00 0.00 0.00 76 1010.5
20260506090805 11 22 3.2 16.1 0.00 0.00 0.00 77 1010.1
20260506090406 11 17 3.2 16.1 0.00 0.00 0.00 77 1010.3
20260506090006 11 33 3.2 14.5 0.00 0.00 0.00 78 1010.0
20260506085205 11 24 3.2 14.5 0.00 0.00 0.00 78 1010.0
20260506084804 11 33 4.8 22.5 0.00 0.00 0.00 79 1010.0
20260506084005 11 39 4.8 12.9 0.00 0.00 0.00 79 1009.7
20260506083604 11 42 3.2 12.9 0.00 0.00 0.00 80 1009.8
20260506083205 11 43 4.8 17.7 0.00 0.00 0.00 79 1009.9
20260506082804 11 40 4.8 17.7 0.00 0.00 0.00 80 1009.8
20260506082405 11 25 4.8 20.9 0.00 0.00 0.00 80 1009.8
20260506082006 11 20 6.4 20.9 0.00 0.00 0.00 80 1009.8
20260506081605 11 25 6.4 20.9 0.00 0.00 0.00 80 1009.9
20260506081205 11 26 4.8 11.3 0.00 0.00 0.00 80 1010.0
20260506080804 11 29 4.8 20.9 0.00 0.00 0.00 80 1009.9
20260506080404 11 26 4.8 20.9 0.00 0.00 0.00 80 1009.8
20260506073206 11 11 4.8 17.7 0.00 0.00 0.00 81 1009.7
20260506072805 11 18 4.8 17.7 0.00 0.00 0.00 81 1009.5
20260506072405 11 39 4.8 11.3 0.00 0.00 0.00 81 1009.6
20260506072005 11 54 3.2 11.3 0.00 0.00 0.00 81 1009.7
20260506071605 11 45 3.2 11.3 0.00 0.00 0.00 81 1009.8
20260506071205 11 44 3.2 9.7 0.00 0.00 0.00 81 1009.7
20260506070804 11 30 4.8 14.5 0.00 0.00 0.00 81 1009.5